Location: Hartford
(41.7640°N, 72.6860°W)
Time: 01:36:30
(UTC-04:00)

Amateur Radio Satellites - All Passes

Search period start: 02 July 2016 01:06
Search period end: 03 July 2016 01:06
Location: Hartford, 41.7640°N, 72.6860°W

Satellite Date Start Highest point End Downlink Frequencies (MHz)
Time Altitude Azimuth
DX 1 02 Jul 01:07:23 01:10:06 16° 267° (W) 01:12:50 434.975-435.025
POPSAT HIP 1 02 Jul 01:08:14 01:12:08 35° 289° (WNW) 01:16:02 437.405
ITUPSAT 1 02 Jul 01:09:36 01:12:44 17° 62° (ENE) 01:15:51 437.325
DUCHIFAT 1 02 Jul 01:18:20 01:22:03 30° 291° (WNW) 01:25:47 145.980
QB50P2 02 Jul 01:21:54 01:25:21 24° 292° (WNW) 01:28:49 145.880/145.840
POLYITAN 1 02 Jul 01:24:33 01:27:59 24° 292° (WNW) 01:31:26 437.675
BEESAT 3 02 Jul 01:27:26 01:31:04 38° 116° (ESE) 01:34:44 437.485
Cosmos 2504 02 Jul 01:28:56 01:37:49 79° 266° (W) 01:46:14 435.465 / 435.565
TISAT 1 02 Jul 01:39:42 01:43:42 45° 261° (W) 01:47:42 437.305
PCSat 02 Jul 01:39:43 01:45:08 79° 117° (ESE) 01:50:35 145.827
Oscar 19 02 Jul 01:49:39 01:54:26 38° 98° (E) 01:59:11 437.125/150
O/OREOS (USA 219) 02 Jul 01:53:55 01:58:11 45° 107° (ESE) 02:02:28 437.305
Cosmos 2491 02 Jul 01:57:53 02:05:51 38° 289° (WNW) 02:13:52 435.465 / 435.565
BUGSAT 1 02 Jul 01:58:55 02:02:14 24° 292° (WNW) 02:05:33 437.445
BEESAT 2 02 Jul 02:12:29 02:16:25 66° 120° (ESE) 02:20:22 435.950
SWISSCUBE 02 Jul 02:16:49 02:21:37 86° 78° (ENE) 02:26:27 437.505
ITAMSAT 1 02 Jul 02:23:02 02:24:36 11° 88° (E) 02:26:09 435.822/435.867
KKS-1 02 Jul 02:32:05 02:34:18 14° 62° (ENE) 02:36:30 437.445
Gurwin Techsat 1B 02 Jul 02:36:34 02:41:42 46° 99° (E) 02:46:48 435.225
BEESAT 02 Jul 02:41:47 02:46:30 59° 259° (WSW) 02:51:15 436.000
JAS-2 02 Jul 02:43:34 02:48:13 28° 296° (WNW) 02:52:37 435.910
ITUPSAT 1 02 Jul 02:45:24 02:50:06 56° 259° (W) 02:54:51 437.325
AIST 1 02 Jul 02:46:57 02:48:58 13° 69° (ENE) 02:50:59
MOZHAYETS 4 02 Jul 02:48:43 02:51:56 19° 65° (ENE) 02:55:12
STARS 02 Jul 02:54:32 02:56:06 12° 61° (ENE) 02:57:39 437.465
BEESAT 3 02 Jul 03:05:49 03:08:52 21° 314° (NW) 03:11:58 437.485
Cosmos 2504 02 Jul 03:25:01 03:29:38 16° 286° (WNW) 03:34:09 435.465 / 435.565
PCSat 02 Jul 03:25:22 03:29:10 19° 317° (NW) 03:32:59 145.827
AIST 2 02 Jul 03:27:17 03:30:27 22° 112° (ESE) 03:33:38 435.215
Oscar 19 02 Jul 03:29:19 03:33:34 27° 294° (WNW) 03:37:47 437.125/150
AO-7 02 Jul 03:31:44 03:38:34 27° 94° (E) 03:45:19 29.400- 29.500
O/OREOS (USA 219) 02 Jul 03:34:34 03:37:49 19° 305° (NW) 03:41:04 437.305
BEESAT 2 02 Jul 03:52:19 03:54:40 15° 319° (NW) 03:57:02 435.950
AO-85 02 Jul 03:56:22 03:58:32 13° 34° (NE) 04:00:39 145.980
ITAMSAT 1 02 Jul 03:59:27 04:04:43 86° 286° (WNW) 04:09:56 435.822/435.867
Cosmos 2499 02 Jul 04:02:28 04:07:40 17° 58° (ENE) 04:12:41 435.465 / 435.565
KKS-1 02 Jul 04:05:59 04:10:20 62° 258° (WSW) 04:14:44 437.445
Gurwin Techsat 1B 02 Jul 04:17:10 04:21:20 24° 296° (WNW) 04:25:29 435.225
AIST 1 02 Jul 04:22:46 04:26:55 52° 266° (W) 04:31:04
MOZHAYETS 4 02 Jul 04:24:19 04:28:46 46° 262° (W) 04:33:15
CUBESAT XI-V 02 Jul 04:26:13 04:29:55 24° 67° (ENE) 04:33:37 437.345
STARS 02 Jul 04:27:30 04:31:51 72° 257° (WSW) 04:36:14 437.465
GONETS M04 02 Jul 04:47:37 04:55:58 46° 74° (ENE) 05:04:16
PHONESAT 2.4 02 Jul 05:01:27 05:03:44 19° 154° (SSE) 05:06:02 2401.200-2431.200
AIST 2 02 Jul 05:04:53 05:08:43 36° 310° (NW) 05:12:35 435.215
HORYU 2 02 Jul 05:21:58 05:26:13 40° 99° (E) 05:30:27 437.375
AO-7 02 Jul 05:23:36 05:31:54 68° 293° (WNW) 05:40:09 29.400- 29.500
AO-85 02 Jul 05:35:21 05:39:54 77° 55° (NE) 05:44:02 145.980
ITAMSAT 1 02 Jul 05:41:25 05:43:22 12° 303° (WNW) 05:45:18 435.822/435.867
BRITE-PL 02 Jul 05:41:34 05:42:21 10° 90° (E) 05:43:09 437.365/2234.400
STRAND 1 02 Jul 05:45:20 05:47:44 13° 59° (ENE) 05:50:09 437.568
NOAA 15 02 Jul 05:45:21 05:48:22 15° 91° (E) 05:51:22 137.62
Cosmos 2499 02 Jul 05:53:40 06:02:27 78° 81° (E) 06:10:37 435.465 / 435.565
CUBESAT XI-V 02 Jul 06:02:44 06:07:04 37° 263° (W) 06:11:26 437.345
LilacSat-2 02 Jul 06:07:29 06:09:31 14° 91° (E) 06:11:32 437.200
CUSAT 1 02 Jul 06:24:16 06:30:53 35° 92° (E) 06:36:29 437.405
Cubesat XI-IV 02 Jul 06:35:27 06:40:18 33° 96° (E) 06:45:07 437.490
PHONESAT 2.4 02 Jul 06:36:59 06:40:00 56° 169° (S) 06:43:01 2401.200-2431.200
ISS 02 Jul 06:41:42 06:44:05 19° 133° (SE) 06:46:30 145.825
GONETS M04 02 Jul 06:44:45 06:52:36 39° 274° (W) 07:00:29
HORYU 2 02 Jul 06:59:11 07:02:30 21° 295° (WNW) 07:05:49 437.375
NOAA 18 02 Jul 07:01:48 07:07:19 61° 102° (ESE) 07:12:49 137.9125
CUTE-I 02 Jul 07:08:11 07:13:34 67° 102° (ESE) 07:18:53 437.470
BRITE-PL 02 Jul 07:17:10 07:21:16 61° 285° (WNW) 07:25:27 437.365/2234.400
AO-7 02 Jul 07:18:25 07:23:09 17° 314° (NW) 07:27:55 29.400- 29.500
PRISM 02 Jul 07:20:25 07:22:31 14° 63° (ENE) 07:24:37 437.425
STRAND 1 02 Jul 07:21:02 07:26:11 84° 257° (WSW) 07:31:23 437.568
DANDE 02 Jul 07:22:02 07:30:03 52° 93° (E) 07:37:13 436.750
NOAA 15 02 Jul 07:23:24 07:28:37 66° 287° (WNW) 07:33:47 137.62
GOMX 1 02 Jul 07:29:58 07:34:15 80° 102° (ESE) 07:38:44 467.674
LilacSat-2 02 Jul 07:40:20 07:44:02 42° 287° (WNW) 07:47:43 437.200
Cosmos 2499 02 Jul 07:48:22 07:54:28 22° 282° (WNW) 08:00:20 435.465 / 435.565
CUSAT 1 02 Jul 08:05:49 08:12:52 43° 284° (WNW) 08:18:41 437.405
DOVE 4 02 Jul 08:09:49 08:14:14 85° 285° (WNW) 08:18:55 437.250
COMPASS 1 02 Jul 08:09:54 08:11:01 11° 89° (E) 08:12:07 437.405
PHONESAT 2.4 02 Jul 08:13:27 08:16:30 65° 187° (S) 08:19:33 2401.200-2431.200
Cubesat XI-IV 02 Jul 08:15:33 08:20:18 33° 294° (WNW) 08:25:02 437.490
ISS 02 Jul 08:17:07 08:20:18 50° 329° (NNW) 08:23:30 145.825
HO-68 02 Jul 08:17:51 08:24:27 37° 97° (E) 08:31:01 435.675
CANX-2 02 Jul 08:21:39 08:25:37 35° 97° (E) 08:29:32 2200.000
CINEMA 3 02 Jul 08:35:49 08:40:22 55° 100° (E) 08:45:07 145.822/145.860
SEEDS 02 Jul 08:37:25 08:41:15 33° 97° (E) 08:45:03 437.485
CUTE 1.7 + AOD 2 02 Jul 08:40:42 08:44:53 51° 99° (E) 08:49:01 437.475
NOAA 18 02 Jul 08:43:34 08:47:29 20° 299° (WNW) 08:51:24 137.9125
PCSat 02 Jul 08:45:44 08:48:18 13° 37° (NE) 08:50:54 145.827
UWE-3 02 Jul 08:45:59 08:48:43 15° 91° (E) 08:51:28 435.000/436.395/437.385
CUTE-I 02 Jul 08:49:35 08:53:02 18° 299° (WNW) 08:56:28 437.470
PRISM 02 Jul 08:53:19 08:57:22 54° 259° (W) 09:01:26 437.425
M-CUBED/EXP-1 PRIME 02 Jul 09:01:50 09:03:45 13° 98° (E) 09:05:42 437.505
AAUSAT CUBESAT 2 02 Jul 09:04:45 09:08:38 37° 97° (E) 09:12:28 437.432
DANDE 02 Jul 09:05:28 09:13:00 37° 288° (WNW) 09:19:45 436.750
TIGRISAT 02 Jul 09:15:34 09:18:18 16° 64° (ENE) 09:21:04 435.000
UNISAT 6 02 Jul 09:21:35 09:24:46 20° 65° (ENE) 09:28:00 437.425
RS-15 02 Jul 09:26:18 09:33:01 18° 96° (E) 09:39:54 29.354- 29.394
CUBEBUG 2 02 Jul 09:42:09 09:46:51 85° 105° (ESE) 09:51:36 437.445
COMPASS 1 02 Jul 09:42:50 09:46:59 62° 285° (WNW) 09:51:05 437.405
BEESAT 3 02 Jul 09:44:25 09:47:49 26° 48° (NE) 09:51:11 437.485
PHONESAT 2.4 02 Jul 09:50:13 09:52:52 26° 202° (SSW) 09:55:30 2401.200-2431.200
ZACube-1 02 Jul 09:50:31 09:54:57 47° 99° (E) 09:59:22 437.345
AUBIESAT-1 02 Jul 09:51:39 09:55:27 37° 104° (ESE) 09:59:30 437.475
Oscar 11 02 Jul 09:52:27 09:56:43 51° 100° (E) 10:00:56 145.826/435.025
ISS 02 Jul 09:55:05 09:57:19 17° 349° (N) 09:59:32 145.825
CANX-2 02 Jul 09:58:04 10:01:14 20° 293° (WNW) 10:04:23 2200.000
ANTELSAT 02 Jul 10:00:00 10:04:11 49° 72° (ENE) 10:08:29 437.575/2403.000
HO-68 02 Jul 10:05:28 10:12:12 44° 295° (WNW) 10:18:54 435.675
FUNcube-1 02 Jul 10:05:41 10:10:14 65° 101° (E) 10:14:47 145.935
Cosmos 2491 02 Jul 10:10:57 10:17:41 24° 65° (ENE) 10:24:23 435.465 / 435.565
SEEDS 02 Jul 10:13:32 10:16:45 21° 293° (WNW) 10:19:57 437.485
CINEMA 3 02 Jul 10:14:10 10:17:07 17° 295° (WNW) 10:20:08 145.822/145.860
DELFI C3 02 Jul 10:17:03 10:20:51 41° 98° (E) 10:24:36 145.870
CUTE 1.7 + AOD 2 02 Jul 10:17:50 10:20:17 15° 296° (WNW) 10:22:43 437.475
NANOSAT C BR1 02 Jul 10:18:21 10:20:10 13° 63° (ENE) 10:22:01 145.865
UWE-3 02 Jul 10:20:56 10:25:28 55° 287° (WNW) 10:30:02 435.000/436.395/437.385
QB50P1 02 Jul 10:23:08 10:25:33 15° 64° (ENE) 10:27:58 145.935-145.965
O/OREOS (USA 219) 02 Jul 10:26:22 10:27:47 11° 50° (NE) 10:29:12 437.305
POPSAT HIP 1 02 Jul 10:26:33 10:29:09 16° 64° (ENE) 10:31:45 437.405
PCSat 02 Jul 10:27:22 10:32:48 66° 58° (ENE) 10:38:10 145.827
HUMSAT D 02 Jul 10:27:54 10:31:35 27° 95° (E) 10:35:13 437.325/437.525
BEESAT 2 02 Jul 10:30:19 10:34:08 42° 52° (NE) 10:37:56 435.950
M-CUBED/EXP-1 PRIME 02 Jul 10:34:32 10:38:29 57° 291° (WNW) 10:42:43 437.505
DUCHIFAT 1 02 Jul 10:35:40 10:38:32 18° 65° (ENE) 10:41:24 145.980
QB50P2 02 Jul 10:39:06 10:42:26 23° 67° (ENE) 10:45:48 145.880/145.840
AAUSAT CUBESAT 2 02 Jul 10:40:56 10:43:51 19° 294° (WNW) 10:46:45 437.432
POLYITAN 1 02 Jul 10:41:42 10:45:04 24° 67° (ENE) 10:48:27 437.675
TIGRISAT 02 Jul 10:50:24 10:54:34 48° 261° (W) 10:58:52 435.000
UNISAT 6 02 Jul 10:57:10 11:01:12 38° 262° (W) 11:05:22 437.425
JAS-2 02 Jul 11:10:25 11:15:49 23° 62° (ENE) 11:20:50 435.910
BUGSAT 1 02 Jul 11:13:55 11:16:55 21° 67° (ENE) 11:19:55 437.445
CUBEBUG 2 02 Jul 11:21:19 11:22:48 11° 299° (WNW) 11:24:16 437.445
BEESAT 3 02 Jul 11:22:02 11:25:29 29° 245° (WSW) 11:28:53 437.485
ESTCUBE 1 02 Jul 11:26:02 11:29:24 21° 93° (E) 11:32:45 437.505/2401.250
AUBIESAT-1 02 Jul 11:26:44 11:29:44 20° 297° (WNW) 11:32:52 437.475
50 SAT 02 Jul 11:27:24 11:28:29 11° 91° (E) 11:29:32 437.505
ZACube-1 02 Jul 11:27:44 11:30:52 18° 295° (WNW) 11:34:00 437.345
Oscar 11 02 Jul 11:29:49 11:32:25 16° 296° (WNW) 11:35:00 145.826/435.025
RS-15 02 Jul 11:31:53 11:43:14 77° 118° (ESE) 11:55:15 29.354- 29.394
ISS 02 Jul 11:32:34 11:34:42 16° 9° (N) 11:36:51 145.825
ANTELSAT 02 Jul 11:38:42 11:41:12 15° 269° (W) 11:43:46 437.575/2403.000
FUNcube-1 02 Jul 11:43:36 11:45:56 14° 297° (WNW) 11:48:17 145.935
AIST 2 02 Jul 11:47:53 11:50:56 19° 44° (NE) 11:53:57 435.215
CUBEBUG 1 02 Jul 11:48:18 11:51:46 23° 95° (E) 11:55:14 437.445
YUBILEINY 02 Jul 11:50:51 11:58:43 40° 86° (E) 12:06:38 435.215
NANOSAT C BR1 02 Jul 11:51:16 11:55:24 60° 259° (W) 11:59:33 145.865
DELFI C3 02 Jul 11:52:57 11:55:21 16° 295° (WNW) 11:57:45 145.870
QB50P1 02 Jul 11:56:52 12:00:55 49° 260° (W) 12:05:01 145.935-145.965
POPSAT HIP 1 02 Jul 12:00:33 12:04:34 45° 261° (W) 12:08:37 437.405
O/OREOS (USA 219) 02 Jul 12:03:21 12:07:51 88° 249° (WSW) 12:12:21 437.305
HUMSAT D 02 Jul 12:03:29 12:07:07 27° 291° (WNW) 12:10:45 437.325/437.525
Cosmos 2491 02 Jul 12:06:45 12:15:27 76° 266° (W) 12:24:07 435.465 / 435.565
VELOX 1 02 Jul 12:07:15 12:11:15 33° 97° (E) 12:15:14 145.980
BEESAT 2 02 Jul 12:08:58 12:11:39 17° 249° (WSW) 12:14:20 435.950
DUCHIFAT 1 02 Jul 12:10:02 12:13:56 39° 262° (W) 12:17:52 145.980
PCSat 02 Jul 12:12:09 12:15:36 17° 255° (WSW) 12:19:03 145.827
QB50P2 02 Jul 12:14:24 12:18:06 30° 264° (W) 12:21:50 145.880/145.840
POLYITAN 1 02 Jul 12:17:05 12:20:45 29° 264° (W) 12:24:26 437.675
Cosmos 2504 02 Jul 12:17:21 12:22:20 17° 76° (ENE) 12:27:26 435.465 / 435.565
SPROUT 02 Jul 12:19:13 12:22:25 20° 94° (E) 12:25:38 437.525
Gurwin Techsat 1B 02 Jul 12:22:57 12:24:05 11° 56° (ENE) 12:25:14 435.225
UKube-1 02 Jul 12:25:30 12:29:23 32° 97° (E) 12:33:14 .
AISAT 02 Jul 12:48:22 12:52:46 81° 284° (WNW) 12:57:10 437.250
BUGSAT 1 02 Jul 12:48:34 12:52:07 31° 263° (W) 12:55:42 437.445
JAS-2 02 Jul 12:52:46 13:00:19 75° 257° (WSW) 13:07:07 435.910
DX 1 02 Jul 12:53:11 12:57:33 83° 105° (ESE) 13:01:52 434.975-435.025
50 SAT 02 Jul 12:58:52 13:02:26 46° 287° (WNW) 13:05:56 437.505
ESTCUBE 1 02 Jul 13:02:11 13:06:20 38° 290° (WNW) 13:10:27 437.505/2401.250
Oscar 19 02 Jul 13:06:36 13:11:38 57° 72° (ENE) 13:16:40 437.125/150
ISS 02 Jul 13:08:39 13:11:47 43° 29° (NNE) 13:14:55 145.825
TISAT 1 02 Jul 13:23:29 13:27:00 25° 96° (E) 13:30:31 437.305
CUBEBUG 1 02 Jul 13:24:16 13:28:04 31° 291° (WNW) 13:31:53 437.445
AIST 2 02 Jul 13:25:39 13:29:41 51° 242° (WSW) 13:33:43 435.215
ITAMSAT 1 02 Jul 13:40:09 13:43:52 20° 62° (ENE) 13:47:35 435.822/435.867
VELOX 1 02 Jul 13:44:05 13:47:32 23° 294° (WNW) 13:50:59 145.980
RS-15 02 Jul 13:46:15 13:56:55 39° 324° (NW) 14:08:08 29.354- 29.394
YUBILEINY 02 Jul 13:47:07 13:55:21 46° 286° (WNW) 14:03:43 435.215
SPROUT 02 Jul 13:54:33 13:58:28 35° 290° (WNW) 14:02:22 437.525
Gurwin Techsat 1B 02 Jul 13:57:48 14:03:06 75° 75° (ENE) 14:08:26 435.225
UKube-1 02 Jul 14:01:51 14:05:15 23° 294° (WNW) 14:08:39 .
Cosmos 2504 02 Jul 14:06:02 14:14:16 87° 97° (E) 14:23:06 435.465 / 435.565
Cosmos 2491 02 Jul 14:06:48 14:10:40 14° 286° (WNW) 14:14:33 435.465 / 435.565
SWISSCUBE 02 Jul 14:17:31 14:21:11 21° 94° (E) 14:24:48 437.505
SO-50 02 Jul 14:18:09 14:22:19 28° 113° (ESE) 14:26:29 436.795
AO-7 02 Jul 14:30:51 14:38:23 40° 60° (ENE) 14:45:58 29.400- 29.500
DX 1 02 Jul 14:32:38 14:33:03 10° 300° (WNW) 14:33:29 434.975-435.025
BEESAT 02 Jul 14:41:46 14:46:07 34° 97° (E) 14:50:26 436.000
JAS-2 02 Jul 14:43:12 14:46:06 12° 272° (W) 14:48:54 435.910
ISS 02 Jul 14:45:24 14:48:04 23° 225° (SW) 14:50:44 145.825
ITUPSAT 1 02 Jul 14:45:42 14:50:08 36° 98° (E) 14:54:32 437.325
Oscar 19 02 Jul 14:47:59 14:51:19 17° 269° (W) 14:54:38 437.125/150
TISAT 1 02 Jul 14:59:01 15:02:36 27° 291° (WNW) 15:06:10 437.305
ITAMSAT 1 02 Jul 15:17:47 15:22:53 55° 259° (W) 15:28:03 435.822/435.867
Gurwin Techsat 1B 02 Jul 15:41:03 15:43:37 14° 271° (W) 15:46:11 435.225
SWISSCUBE 02 Jul 15:54:37 15:59:07 41° 290° (WNW) 16:03:34 437.505
KKS-1 02 Jul 15:57:03 16:00:40 24° 95° (E) 16:04:16 437.445
SO-50 02 Jul 15:58:06 16:02:40 39° 310° (NW) 16:07:15 436.795
Cosmos 2504 02 Jul 16:02:56 16:08:55 21° 298° (WNW) 16:15:10 435.465 / 435.565
RS-15 02 Jul 16:05:06 16:14:12 24° 358° (N) 16:23:31 29.354- 29.394
STARS 02 Jul 16:17:20 16:20:34 20° 94° (E) 16:23:48 437.465
MOZHAYETS 4 02 Jul 16:18:57 16:23:19 39° 98° (E) 16:27:38
BEESAT 02 Jul 16:19:46 16:23:45 27° 294° (WNW) 16:27:43 436.000
HORYU 2 02 Jul 16:20:09 16:24:14 38° 70° (ENE) 16:28:22 437.375
AO-7 02 Jul 16:22:58 16:30:57 50° 259° (WSW) 16:39:03 29.400- 29.500
ITUPSAT 1 02 Jul 16:23:53 16:27:47 25° 294° (WNW) 16:31:39 437.325
Cosmos 2499 02 Jul 16:43:39 16:45:58 11° 71° (ENE) 16:48:18 435.465 / 435.565
NOAA 18 02 Jul 16:50:28 16:53:57 17° 59° (ENE) 16:57:27 137.9125
BRITE-PL 02 Jul 16:51:38 16:54:34 16° 65° (ENE) 16:57:23 437.365/2234.400
AIST 1 02 Jul 16:51:49 16:56:07 88° 104° (ESE) 17:00:26
CUTE-I 02 Jul 16:53:06 16:56:14 16° 60° (ENE) 16:59:22 437.470
NOAA 15 02 Jul 17:05:09 17:09:30 27° 65° (ENE) 17:13:52 137.62
KKS-1 02 Jul 17:33:17 17:37:14 32° 291° (WNW) 17:41:12 437.445
GONETS M04 02 Jul 17:48:51 17:57:09 52° 89° (E) 18:05:28
STARS 02 Jul 17:52:58 17:57:03 38° 290° (WNW) 18:01:08 437.465
MOZHAYETS 4 02 Jul 17:56:42 18:00:13 22° 294° (WNW) 18:03:42
Cubesat XI-IV 02 Jul 17:57:32 18:02:45 56° 71° (ENE) 18:08:01 437.490
HORYU 2 02 Jul 17:57:39 18:00:56 20° 266° (W) 18:04:13 437.375
CUBESAT XI-V 02 Jul 17:58:35 18:03:07 52° 100° (E) 18:07:34 437.345
DANDE 02 Jul 18:04:49 18:08:15 22° 65° (ENE) 18:11:05 436.750
RS-15 02 Jul 18:20:43 18:31:46 36° 33° (NNE) 18:42:50 29.354- 29.394
LilacSat-2 02 Jul 18:22:02 18:25:49 87° 256° (WSW) 18:29:40 437.200
BRITE-PL 02 Jul 18:27:55 18:32:44 54° 260° (W) 18:37:12 437.365/2234.400
NOAA 18 02 Jul 18:28:33 18:34:00 71° 257° (WSW) 18:39:31 137.9125
Cosmos 2499 02 Jul 18:28:52 18:37:09 64° 92° (E) 18:45:52 435.465 / 435.565
CUTE-I 02 Jul 18:30:17 18:35:38 75° 257° (WSW) 18:41:02 437.470
GOMX 1 02 Jul 18:38:26 18:42:56 87° 78° (ENE) 18:47:14 467.674
CUSAT 1 02 Jul 18:42:16 18:45:13 33° 267° (W) 18:47:44 437.405
NOAA 15 02 Jul 18:44:07 18:49:04 40° 262° (W) 18:54:02 137.62
HO-68 02 Jul 18:47:16 18:53:15 30° 60° (ENE) 18:59:16 435.675
CANX-2 02 Jul 19:14:44 19:18:21 27° 69° (ENE) 19:21:59 2200.000
DOVE 4 02 Jul 19:15:50 19:20:05 82° 258° (WSW) 19:24:15 437.250
SEEDS 02 Jul 19:29:30 19:32:58 25° 68° (ENE) 19:36:26 437.485
STRAND 1 02 Jul 19:31:38 19:36:14 32° 96° (E) 19:40:49 437.568
CUTE 1.7 + AOD 2 02 Jul 19:33:25 19:37:22 37° 71° (ENE) 19:41:21 437.475
CUBESAT XI-V 02 Jul 19:37:09 19:40:04 17° 296° (WNW) 19:42:58 437.345
CINEMA 3 02 Jul 19:38:05 19:42:03 47° 73° (ENE) 19:46:06 145.822/145.860
Cubesat XI-IV 02 Jul 19:39:28 19:43:09 19° 268° (W) 19:46:54 437.490
UWE-3 02 Jul 19:44:34 19:46:18 12° 62° (ENE) 19:48:02 435.000/436.395/437.385
GONETS M04 02 Jul 19:46:31 19:54:15 35° 290° (WNW) 20:02:02
DANDE 02 Jul 19:47:44 19:50:58 21° 275° (W) 19:53:38 436.750
AO-85 02 Jul 19:49:13 19:53:49 28° 113° (ESE) 19:58:18 145.980
M-CUBED/EXP-1 PRIME 02 Jul 19:49:38 19:51:12 13° 59° (ENE) 19:52:47 437.505
AAUSAT CUBESAT 2 02 Jul 19:55:20 19:58:49 26° 69° (ENE) 20:02:20 437.432
Cosmos 2499 02 Jul 20:23:39 20:30:53 30° 293° (WNW) 20:38:26 435.465 / 435.565
COMPASS 1 02 Jul 20:33:14 20:37:27 88° 88° (E) 20:41:42 437.405
RS-15 02 Jul 20:33:32 20:45:57 87° 240° (WSW) 20:58:13 29.354- 29.394
HO-68 02 Jul 20:33:33 20:40:34 57° 259° (WSW) 20:47:38 435.675
PRISM 02 Jul 20:35:21 20:38:15 19° 94° (E) 20:41:08 437.425
AUBIESAT-1 02 Jul 20:38:46 20:41:53 42° 68° (ENE) 20:45:07 437.475
CUBEBUG 2 02 Jul 20:40:29 20:44:39 70° 75° (ENE) 20:48:58 437.445
ZACube-1 02 Jul 20:46:37 20:50:31 36° 70° (ENE) 20:54:30 437.345
Oscar 11 02 Jul 20:47:15 20:51:18 40° 71° (ENE) 20:55:23 145.826/435.025
CANX-2 02 Jul 20:50:30 20:54:08 27° 265° (W) 20:57:48 2200.000
FUNcube-1 02 Jul 21:01:19 21:05:25 49° 73° (ENE) 21:09:37 145.935
DELFI C3 02 Jul 21:03:20 21:06:42 26° 69° (ENE) 21:10:05 145.870
SEEDS 02 Jul 21:04:50 21:08:33 29° 264° (W) 21:12:18 437.485
CUTE 1.7 + AOD 2 02 Jul 21:10:15 21:13:20 19° 267° (W) 21:16:26 437.475
STRAND 1 02 Jul 21:10:50 21:15:20 31° 293° (WNW) 21:19:49 437.568
CINEMA 3 02 Jul 21:17:21 21:19:31 14° 269° (W) 21:21:41 145.822/145.860
UWE-3 02 Jul 21:17:58 21:22:10 65° 260° (W) 21:26:29 435.000/436.395/437.385
HUMSAT D 02 Jul 21:19:51 21:22:54 20° 66° (ENE) 21:26:00 437.325/437.525
M-CUBED/EXP-1 PRIME 02 Jul 21:22:28 21:25:28 34° 257° (WSW) 21:28:32 437.505
AO-85 02 Jul 21:28:58 21:34:09 45° 309° (NW) 21:39:09 145.980
AAUSAT CUBESAT 2 02 Jul 21:30:41 21:34:14 26° 265° (W) 21:37:47 437.432
ANTELSAT 02 Jul 21:53:39 21:54:59 11° 89° (E) 21:56:19 437.575/2403.000
YUBILEINY 02 Jul 22:00:52 22:07:00 20° 62° (ENE) 22:13:07 435.215
PRISM 02 Jul 22:09:57 22:13:40 34° 290° (WNW) 22:17:20 437.425
ZACube-1 02 Jul 22:23:50 22:26:56 19° 268° (W) 22:30:05 437.345
Oscar 11 02 Jul 22:24:35 22:27:35 18° 267° (W) 22:30:38 145.826/435.025
ESTCUBE 1 02 Jul 22:25:59 22:29:21 21° 65° (ENE) 22:32:43 437.505/2401.250
DELFI C3 02 Jul 22:38:10 22:41:30 24° 265° (W) 22:44:50 145.870
FUNcube-1 02 Jul 22:39:39 22:41:58 14° 270° (W) 22:44:20 145.935
TIGRISAT 02 Jul 22:41:22 22:45:38 34° 97° (E) 22:49:54 435.000
CUBEBUG 1 02 Jul 22:44:49 22:48:04 21° 66° (ENE) 22:51:19 437.445
RS-15 02 Jul 22:47:56 22:56:42 24° 261° (W) 23:05:26 29.354- 29.394
UNISAT 6 02 Jul 22:48:01 22:52:28 42° 98° (E) 22:56:56 437.425
SO-50 02 Jul 22:49:03 22:53:08 29° 46° (NE) 22:57:06 436.795
HUMSAT D 02 Jul 22:54:24 22:58:16 36° 263° (W) 23:02:13 437.325/437.525
VELOX 1 02 Jul 23:04:48 23:08:41 31° 69° (ENE) 23:12:35 145.980
Cosmos 2491 02 Jul 23:13:29 23:20:20 27° 81° (E) 23:27:10 435.465 / 435.565
SPROUT 02 Jul 23:13:39 23:16:23 17° 65° (ENE) 23:19:08 437.525
AO-85 02 Jul 23:14:40 23:15:53 11° 329° (NNW) 23:17:05 145.980
UKube-1 02 Jul 23:20:19 23:24:01 29° 68° (ENE) 23:27:44 .
ANTELSAT 02 Jul 23:27:29 23:32:12 76° 284° (WNW) 23:36:54 437.575/2403.000
NANOSAT C BR1 02 Jul 23:35:58 23:39:11 21° 94° (E) 23:42:23 145.865
50 SAT 02 Jul 23:36:21 23:40:04 76° 75° (ENE) 23:43:47 437.505
QB50P1 02 Jul 23:41:33 23:45:05 25° 95° (E) 23:48:36 145.935-145.965
POPSAT HIP 1 02 Jul 23:45:09 23:48:47 27° 96° (E) 23:52:25 437.405
AISAT 02 Jul 23:45:38 23:50:02 89° 264° (W) 23:54:27 437.250
DX 1 02 Jul 23:48:37 23:52:56 74° 74° (ENE) 23:57:16 434.975-435.025
DUCHIFAT 1 02 Jul 23:53:45 23:57:30 30° 96° (E) 00:01:15 145.980
YUBILEINY 02 Jul 23:56:10 00:05:04 89° 267° (W) 00:13:56 435.215
QB50P2 02 Jul 23:58:27 00:02:30 40° 98° (E) 00:06:32 145.880/145.840
Cosmos 2504 02 Jul 23:58:55 00:06:51 35° 70° (ENE) 00:14:25 435.465 / 435.565
POLYITAN 1 03 Jul 00:01:03 00:05:08 41° 99° (E) 00:09:12 437.675
ESTCUBE 1 03 Jul 00:01:37 00:05:53 40° 262° (W) 00:10:10 437.505/2401.250
JAS-2 03 Jul 00:06:09 00:07:28 11° 86° (E) 00:08:47 435.910
TISAT 1 03 Jul 00:15:49 00:18:53 20° 66° (ENE) 00:21:57 437.305
TIGRISAT 03 Jul 00:18:18 00:22:09 26° 293° (WNW) 00:26:01 435.000
CUBEBUG 1 03 Jul 00:20:07 00:24:07 36° 262° (W) 00:28:08 437.445
UNISAT 6 03 Jul 00:25:23 00:28:53 21° 294° (WNW) 00:32:24 437.425
SO-50 03 Jul 00:29:25 00:33:40 36° 245° (WSW) 00:37:47 436.795
BUGSAT 1 03 Jul 00:29:30 00:33:16 33° 97° (E) 00:37:03 437.445
VELOX 1 03 Jul 00:41:35 00:45:10 24° 265° (W) 00:48:44 145.980
SPROUT 03 Jul 00:47:56 00:51:59 44° 261° (W) 00:56:04 437.525
UKube-1 03 Jul 00:56:27 01:00:01 25° 264° (W) 01:03:37 .
